Location: Palau
(42.3086°N, 3.1507°E)
Time: 10:31:05
(UTC+00:00)

Cosmos 2058 Rocket - Pass Details

Date: 26 May 2020
Orbit: 611 x 638 km, 82.5° (Epoch: 10 July)

Event Time Altitude Azimuth Distance (km) Brightness Sun altitude
Rises 00:07:06 0° 1° (N) 2,903 7.8 -26.3°
Reaches altitude 10° 00:09:31 10° 11° (NNE) 1,997 6.7 -26.3°
Maximum altitude 00:13:30 32° 75° (ENE) 1,075 4.4 -26.2°
Enters shadow 00:13:48 32° 84° (E) 1,083 4.3 -26.2°
